KC1HBM Weather Reports


Display with metric or nautical units.
time (UTC)temp
F
wind
direction
speed
MPH
gust
MPH
rain 1hr
in
rain 24hr
in
rain mn
in
humidity
%
barometer
mb
20260509213713 45 308 3.0 3.0 0.07 0.34 0.34 99 1012.2
20260509213208 45 297 3.0 3.0 0.12 0.34 0.34 99 1012.2
20260509212707 45 279 2.0 2.0 0.05 0.33 0.33 99 1012.1
20260509212203 45 298 2.0 2.0 0.00 0.32 0.32 99 1012.4
20260509211659 45 306 0.0 1.0 0.00 0.32 0.32 99 1012.0
20260509211156 45 302 1.0 1.0 0.07 0.32 0.32 99 1012.2
20260509210652 45 285 3.0 5.0 0.07 0.32 0.32 99 1012.2
20260509210144 45 307 3.0 3.0 0.00 0.31 0.31 99 1012.2
20260509205639 46 293 2.0 2.0 0.00 0.31 0.31 99 1012.2
20260509205138 45 289 2.0 2.0 0.00 0.31 0.31 99 1012.0
20260509204635 45 300 3.0 3.0 0.00 0.31 0.31 99 1012.0
20260509204131 46 283 3.0 3.0 0.00 0.31 0.31 99 1011.8
20260509203627 45 273 4.0 5.0 0.00 0.31 0.31 99 1011.9
20260509203126 45 303 2.0 2.0 0.00 0.31 0.31 99 1012.0
20260509202625 45 306 2.0 2.0 0.00 0.31 0.31 99 1011.9
20260509202121 45 276 3.0 5.0 0.00 0.31 0.31 99 1011.4
20260509201616 45 302 2.0 2.0 0.00 0.31 0.31 99 1011.5
20260509201114 45 298 4.0 5.0 0.05 0.31 0.31 99 1012.3
20260509200615 45 287 2.0 2.0 0.05 0.31 0.31 99 1012.5
20260509200105 45 307 2.0 2.0 0.00 0.30 0.30 99 1012.9
20260509195601 45 303 1.0 2.0 0.00 0.30 0.30 99 1013.0
20260509195056 45 307 1.0 1.0 0.07 0.30 0.30 99 1012.9
20260509194555 45 300 1.0 2.0 0.12 0.30 0.30 99 1013.0
20260509194054 45 309 1.0 1.0 0.05 0.29 0.29 99 1012.8
20260509193548 45 314 0.0 1.0 0.05 0.29 0.29 99 1013.0
20260509193045 45 303 2.0 2.0 0.07 0.28 0.28 99 1012.9
20260509192542 45 309 1.0 1.0 0.07 0.28 0.28 99 1012.8
20260509192037 45 314 1.0 2.0 0.05 0.27 0.27 99 1012.8
20260509191531 45 314 1.0 1.0 0.12 0.27 0.27 99 1013.0
20260509191027 45 312 1.0 1.0 0.12 0.26 0.26 99 1013.0
20260509190525 45 291 3.0 3.0 0.12 0.25 0.25 99 1013.0
20260509190023 45 309 0.0 1.0 0.14 0.24 0.24 99 1013.1
20260509185520 45 310 1.0 1.0 0.19 0.24 0.24 99 1013.1
20260509185016 45 312 1.0 1.0 0.12 0.22 0.22 99 1013.2
20260509184514 45 311 2.0 2.0 0.12 0.21 0.21 99 1013.4
20260509184010 45 300 0.0 1.0 0.12 0.20 0.20 99 1013.4
20260509183505 45 306 1.0 1.0 0.12 0.19 0.19 99 1013.4
20260509183002 45 311 1.0 1.0 0.05 0.18 0.18 99 1013.3
20260509182458 45 312 0.0 1.0 0.07 0.17 0.17 99 1013.3
20260509181955 46 311 1.0 1.0 0.12 0.17 0.17 98 1013.6
20260509181454 46 308 1.0 1.0 0.17 0.16 0.16 98 1013.5
20260509180951 46 315 1.0 1.0 0.19 0.15 0.15 98 1013.5
20260509180446 46 326 0.0 1.0 0.19 0.13 0.13 97 1013.5
20260509175943 46 311 1.0 1.0 0.19 0.12 0.12 97 1013.4
20260509175439 46 311 0.0 1.0 0.12 0.10 0.10 96 1013.3
20260509174936 46 304 1.0 1.0 0.12 0.09 0.09 96 1013.2
20260509174432 46 311 1.0 1.0 0.07 0.08 0.08 95 1013.3
20260509173927 47 325 0.0 1.0 0.05 0.07 0.07 95 1013.3
20260509173421 47 326 0.0 1.0 0.07 0.06 0.06 94 1013.5
20260509172918 47 327 0.0 0.0 0.12 0.06 0.06 94 1013.4
20260509172415 47 328 0.0 0.0 0.12 0.05 0.05 93 1013.3
20260509171911 47 329 0.0 0.0 0.12 0.04 0.04 91 1013.1
20260509171407 48 329 1.0 1.0 0.12 0.03 0.03 90 1013.4
20260509170903 47 331 0.0 0.0 0.07 0.02 0.02 88 1013.3
20260509170359 48 335 1.0 2.0 0.05 0.01 0.01 85 1013.5
20260509165855 49 330 1.0 1.0 0.05 0.01 0.01 83 1013.3
20260509165349 50 328 0.0 1.0 0.00 0.00 0.00 80 1013.3
20260509164845 50 328 1.0 1.0 0.00 0.00 0.00 79 1013.4
20260509164341 49 330 1.0 1.0 0.00 0.00 0.00 76 1013.3
20260509163838 50 355 1.0 1.0 0.00 0.00 0.00 75 1013.4
20260509163334 50 355 0.0 1.0 0.00 0.00 0.00 74 1013.5
20260509162833 50 356 1.0 5.0 0.00 0.00 0.00 73 1013.3
20260509162326 51 356 3.0 5.0 0.00 0.00 0.00 69 1013.4
20260509161823 51 334 1.0 2.0 0.00 0.00 0.00 66 1013.5
20260509161320 51 332 1.0 1.0 0.00 0.00 0.00 66 1013.5
20260509160815 51 338 1.0 1.0 0.00 0.00 0.00 67 1013.5
20260509160311 51 340 3.0 3.0 0.00 0.00 0.00 65 1013.4
20260509155806 51 331 0.0 0.0 0.00 0.00 0.00 66 1013.4
20260509155306 51 339 3.0 3.0 0.00 0.00 0.00 64 1013.5
20260509154759 52 333 1.0 1.0 0.00 0.00 0.00 62 1013.6
20260509154256 52 332 1.0 2.0 0.00 0.00 0.00 63 1013.5
20260509153753 52 341 1.0 2.0 0.00 0.00 0.00 61 1013.6
20260509153249 52 337 2.0 2.0 0.00 0.00 0.00 58 1013.4
20260509152746 53 337 1.0 3.0 0.00 0.00 0.00 58 1013.3
20260509152242 53 335 0.0 1.0 0.00 0.00 0.00 57 1013.5
20260509151739 53 335 2.0 2.0 0.00 0.00 0.00 58 1013.4
20260509151236 53 335 1.0 1.0 0.00 0.00 0.00 57 1013.1
20260509150734 54 335 0.0 1.0 0.00 0.00 0.00 56 1013.0
20260509150232 54 336 1.0 2.0 0.00 0.00 0.00 56 1013.0
20260509145729 55 336 2.0 2.0 0.00 0.00 0.00 55 1012.7
20260509145223 54 332 2.0 2.0 0.00 0.00 0.00 52 1012.8
20260509144720 55 332 1.0 2.0 0.00 0.00 0.00 53 1012.8
20260509144217 55 332 2.0 2.0 0.00 0.00 0.00 52 1012.8
20260509143714 56 331 1.0 1.0 0.00 0.00 0.00 52 1012.8
20260509143211 56 322 2.0 2.0 0.00 0.00 0.00 51 1012.5
20260509142706 55 337 2.0 2.0 0.00 0.00 0.00 51 1012.7
20260509142204 55 339 2.0 2.0 0.00 0.00 0.00 51 1012.6
20260509141659 56 339 2.0 2.0 0.00 0.00 0.00 49 1012.6
20260509141156 55 339 2.0 2.0 0.00 0.00 0.00 51 1012.7
20260509140653 57 321 1.0 1.0 0.00 0.00 0.00 50 1012.6
20260509140151 57 315 0.0 1.0 0.00 0.00 0.00 48 1012.8
20260509135648 57 318 0.0 1.0 0.00 0.00 0.00 48 1012.7
20260509135146 57 322 1.0 1.0 0.00 0.00 0.00 47 1012.7
20260509134642 57 326 1.0 2.0 0.00 0.00 0.00 46 1012.6
20260509134140 57 319 1.0 1.0 0.00 0.00 0.00 44 1012.7
20260509133637 58 308 2.0 2.0 0.00 0.00 0.00 47 1012.8
20260509133134 58 307 2.0 2.0 0.00 0.00 0.00 49 1012.9
20260509132632 58 313 1.0 1.0 0.00 0.00 0.00 45 1012.7
20260509132130 58 307 2.0 3.0 0.00 0.00 0.00 48 1012.9
20260509131626 57 310 2.0 2.0 0.00 0.00 0.00 45 1012.9
20260509131123 57 321 0.0 1.0 0.00 0.00 0.00 47 1012.8
20260509130619 58 305 0.0 0.0 0.00 0.00 0.00 49 1012.9
20260509130115 58 305 0.0 0.0 0.00 0.00 0.00 52 1012.7
20260509125612 59 309 1.0 2.0 0.00 0.00 0.00 51 1012.8
20260509125109 58 306 0.0 1.0 0.00 0.00 0.00 52 1013.0
20260509124605 58 308 1.0 1.0 0.00 0.00 0.00 51 1012.9
20260509124103 58 311 0.0 1.0 0.00 0.00 0.00 51 1013.0
20260509123600 57 311 1.0 1.0 0.00 0.00 0.00 53 1012.9
20260509123057 57 311 0.0 1.0 0.00 0.00 0.00 52 1013.2
20260509122553 58 308 1.0 1.0 0.00 0.00 0.00 51 1013.0
20260509122050 58 308 1.0 2.0 0.00 0.00 0.00 53 1013.2
20260509121546 58 309 2.0 2.0 0.00 0.00 0.00 54 1012.9
20260509121048 58 309 0.0 0.0 0.00 0.00 0.00 58 1013.1
20260509120542 56 309 0.0 0.0 0.00 0.00 0.00 59 1012.9
20260509120041 54 309 0.0 0.0 0.00 0.00 0.00 58 1013.1
20260509115537 56 309 0.0 0.0 0.00 0.00 0.00 58 1012.9
20260509115035 54 309 0.0 1.0 0.00 0.00 0.00 62 1012.7
20260509114533 54 309 1.0 1.0 0.00 0.00 0.00 62 1012.8
20260509114031 55 309 1.0 1.0 0.00 0.00 0.00 60 1013.2
20260509113529 56 309 0.0 0.0 0.00 0.00 0.00 60 1012.9
20260509113027 55 309 0.0 0.0 0.00 0.00 0.00 58 1012.9
20260509112523 55 309 0.0 0.0 0.00 0.00 0.00 57 1013.0
20260509112020 52 309 0.0 0.0 0.00 0.00 0.00 62 1013.1
20260509111517 55 309 0.0 0.0 0.00 0.00 0.00 59 1013.1
20260509111014 54 309 0.0 0.0 0.00 0.00 0.00 62 1013.1
20260509110511 53 309 0.0 0.0 0.00 0.00 0.00 64 1013.1
20260509110008 53 309 0.0 0.0 0.00 0.00 0.00 64 1012.8
20260509105506 53 309 0.0 0.0 0.00 0.00 0.00 64 1013.1
20260509105003 52 309 0.0 0.0 0.00 0.00 0.00 66 1012.7
20260509104500 50 309 0.0 0.0 0.00 0.00 0.00 70 1012.8
20260509103957 48 310 0.0 0.0 0.00 0.00 0.00 78 1012.7
20260509103455 47 312 0.0 0.0 0.00 0.00 0.00 80 1012.7
20260509102953 45 310 0.0 0.0 0.00 0.00 0.00 83 1012.5
20260509102450 44 305 1.0 1.0 0.00 0.00 0.00 83 1012.6
20260509101946 44 308 0.0 0.0 0.00 0.00 0.00 84 1012.4
20260509101443 43 306 0.0 1.0 0.00 0.00 0.00 83 1012.2
20260509100940 44 307 0.0 1.0 0.00 0.00 0.00 82 1012.6
20260509100437 43 311 0.0 0.0 0.00 0.00 0.00 88 1012.2
20260509095933 41 311 0.0 0.0 0.00 0.00 0.00 92 1012.1
20260509095431 39 312 0.0 0.0 0.00 0.00 0.00 93 1012.1
20260509094928 38 312 0.0 0.0 0.00 0.00 0.00 94 1012.1
20260509094424 38 312 0.0 0.0 0.00 0.00 0.00 94 1011.7
20260509093922 37 312 0.0 0.0 0.00 0.00 0.00 93 1011.9
20260509093419 37 315 0.0 0.0 0.00 0.00 0.00 93 1011.6
20260509092917 37 313 0.0 0.0 0.00 0.00 0.00 92 1011.6
20260509092415 37 314 0.0 0.0 0.00 0.00 0.00 92 1011.6
20260509091914 37 313 0.0 0.0 0.00 0.00 0.00 92 1011.3
20260509091410 37 313 0.0 0.0 0.00 0.00 0.00 91 1011.5
20260509090907 37 313 0.0 0.0 0.00 0.00 0.00 90 1011.4
20260509090404 37 314 0.0 0.0 0.00 0.00 0.00 90 1011.4
20260509085902 37 313 0.0 0.0 0.00 0.00 0.00 89 1011.3
20260509085359 37 314 0.0 0.0 0.00 0.00 0.00 89 1011.5
20260509084855 38 314 0.0 0.0 0.00 0.00 0.00 89 1011.4
20260509084352 38 314 0.0 0.0 0.00 0.00 0.00 89 1011.4
20260509083850 39 314 0.0 0.0 0.00 0.00 0.00 89 1011.4
20260509083346 39 313 0.0 0.0 0.00 0.00 0.00 89 1011.3
20260509082843 39 315 0.0 0.0 0.00 0.00 0.00 89 1011.5
20260509082340 39 316 0.0 0.0 0.00 0.00 0.00 89 1011.5
20260509081837 39 318 0.0 0.0 0.00 0.00 0.00 89 1011.8
20260509081334 39 316 0.0 0.0 0.00 0.00 0.00 89 1011.7
20260509080832 39 316 0.0 1.0 0.00 0.00 0.00 89 1011.7
20260509080330 40 314 0.0 0.0 0.00 0.00 0.00 90 1011.5
20260509075828 40 314 0.0 0.0 0.00 0.00 0.00 90 1011.6
20260509075324 41 314 0.0 0.0 0.00 0.00 0.00 90 1011.4
20260509074821 41 314 0.0 0.0 0.00 0.00 0.00 90 1011.5
20260509074319 41 314 0.0 0.0 0.00 0.00 0.00 90 1011.7
20260509073815 41 314 0.0 0.0 0.00 0.00 0.00 90 1011.5
20260509073312 41 314 0.0 0.0 0.00 0.00 0.00 90 1011.6
20260509072809 41 314 0.0 0.0 0.00 0.00 0.00 89 1011.5
20260509072306 41 314 0.0 0.0 0.00 0.00 0.00 89 1011.4
20260509071802 41 314 0.0 0.0 0.00 0.00 0.00 88 1011.5
20260509071259 41 314 0.0 0.0 0.00 0.00 0.00 88 1011.5
20260509070756 42 314 0.0 0.0 0.00 0.00 0.00 87 1011.4
20260509070252 42 314 0.0 0.0 0.00 0.00 0.00 86 1011.5
20260509065749 42 313 0.0 0.0 0.00 0.00 0.00 86 1011.3
20260509065245 42 313 0.0 0.0 0.00 0.00 0.00 84 1011.3
20260509064741 42 313 0.0 0.0 0.00 0.00 0.00 83 1011.5
20260509064239 42 313 0.0 0.0 0.00 0.00 0.00 82 1011.4
20260509063736 42 314 0.0 0.0 0.00 0.00 0.00 79 1011.3
20260509063232 42 314 0.0 0.0 0.00 0.00 0.00 79 1011.3
20260509062730 42 314 0.0 0.0 0.00 0.00 0.00 77 1011.3
20260509062227 42 314 0.0 0.0 0.00 0.00 0.00 76 1011.2
20260509061724 42 314 0.0 0.0 0.00 0.00 0.00 77 1011.4
20260509061222 42 314 0.0 0.0 0.00 0.00 0.00 77 1011.1
20260509060719 42 314 0.0 0.0 0.00 0.00 0.00 77 1011.2
20260509060215 42 314 0.0 0.0 0.00 0.00 0.00 78 1011.2
20260509055711 43 314 0.0 0.0 0.00 0.00 0.00 77 1011.0
20260509055207 43 314 0.0 0.0 0.00 0.00 0.00 76 1011.3
20260509054703 43 314 0.0 0.0 0.00 0.00 0.00 74 1011.0
20260509054201 43 314 0.0 0.0 0.00 0.00 0.00 76 1011.0
20260509053659 44 314 0.0 0.0 0.00 0.00 0.00 77 1011.0
20260509053155 44 314 0.0 0.0 0.00 0.00 0.00 76 1011.1
20260509052654 44 314 0.0 0.0 0.00 0.00 0.00 75 1011.0
20260509052151 44 314 0.0 0.0 0.00 0.00 0.00 76 1011.1
20260509051649 44 314 0.0 0.0 0.00 0.00 0.00 77 1011.1
20260509051146 44 314 0.0 0.0 0.00 0.00 0.00 70 1011.1
20260509050643 44 314 0.0 0.0 0.00 0.00 0.00 70 1011.1
20260509050139 44 314 0.0 0.0 0.00 0.00 0.00 70 1010.9
20260509045637 44 314 0.0 0.0 0.00 0.00 0.00 71 1011.0
20260509045133 44 314 0.0 0.0 0.00 0.00 0.00 72 1011.1
20260509044631 44 314 0.0 0.0 0.00 0.00 0.00 73 1010.9
20260509044128 44 314 0.0 0.0 0.00 0.00 0.00 75 1011.1
20260509043624 44 314 0.0 0.0 0.00 0.00 0.00 75 1011.0
20260509043120 44 314 0.0 0.0 0.00 0.00 0.00 75 1011.2
20260509042617 44 314 0.0 0.0 0.00 0.00 0.00 74 1010.9
20260509042112 44 314 0.0 0.0 0.00 0.00 0.00 72 1011.1
20260509041610 44 314 0.0 0.0 0.00 0.00 0.00 71 1011.0
20260509041107 44 314 0.0 0.0 0.00 0.00 0.00 73 1011.0
20260509040606 44 314 0.0 0.0 0.00 0.00 0.00 72 1010.7
20260509035558 44 314 0.0 0.0 0.00 0.00 0.00 73 1010.6
20260509035055 44 314 0.0 0.0 0.00 0.00 0.00 73 1010.6
20260509034553 44 314 0.0 0.0 0.00 0.00 0.00 74 1010.4
20260509034050 44 314 0.0 0.0 0.00 0.00 0.00 75 1010.5
20260509033547 44 314 0.0 0.0 0.00 0.00 0.00 76 1010.6
20260509033044 44 314 0.0 0.0 0.00 0.00 0.00 77 1010.4
20260509032542 44 314 0.0 0.0 0.00 0.00 0.00 79 1010.4
20260509032038 44 314 0.0 0.0 0.00 0.00 0.00 80 1010.3
20260509031536 44 314 0.0 0.0 0.00 0.00 0.00 80 1010.2
20260509031033 44 314 0.0 0.0 0.00 0.00 0.00 80 1010.1
20260509030531 44 314 0.0 0.0 0.00 0.00 0.00 81 1010.1
20260509030028 44 314 0.0 0.0 0.00 0.00 0.00 82 1010.1
20260509025524 44 314 0.0 0.0 0.00 0.00 0.00 83 1010.1
20260509025019 44 314 0.0 0.0 0.00 0.00 0.00 81 1010.0
20260509024516 44 314 0.0 0.0 0.00 0.00 0.00 81 1010.0
20260509024012 44 314 0.0 0.0 0.00 0.00 0.00 81 1010.0
20260509023510 44 314 0.0 0.0 0.00 0.00 0.00 80 1009.9
20260509023006 44 314 0.0 0.0 0.00 0.00 0.00 80 1009.8
20260509022503 44 314 0.0 0.0 0.00 0.00 0.00 78 1009.8
20260509022001 43 314 0.0 0.0 0.00 0.00 0.00 77 1009.7
20260509021457 43 314 0.0 0.0 0.00 0.00 0.00 76 1009.8
20260509020954 43 314 0.0 0.0 0.00 0.00 0.00 77 1009.5
20260509020453 43 314 0.0 0.0 0.00 0.00 0.00 77 1009.7
20260509015949 43 314 0.0 0.0 0.00 0.00 0.00 78 1009.4
20260509015448 44 314 0.0 0.0 0.00 0.00 0.00 78 1009.5
20260509014944 44 314 0.0 0.0 0.00 0.00 0.00 77 1009.3
20260509014442 44 314 0.0 0.0 0.00 0.00 0.00 77 1009.4
20260509013938 44 314 0.0 0.0 0.00 0.00 0.00 76 1009.2
20260509013435 45 314 0.0 0.0 0.00 0.00 0.00 76 1009.2
20260509012930 46 314 0.0 0.0 0.00 0.00 0.00 74 1009.1
20260509012427 46 314 0.0 0.0 0.00 0.00 0.00 70 1009.2
20260509011924 47 314 0.0 0.0 0.00 0.00 0.00 60 1009.0
20260509011421 47 314 0.0 0.0 0.00 0.00 0.00 54 1008.7
20260509010919 47 314 0.0 0.0 0.00 0.00 0.00 53 1008.7
20260509010417 48 314 0.0 0.0 0.00 0.00 0.00 55 1008.6
20260509005913 48 314 0.0 0.0 0.00 0.00 0.00 54 1008.5
20260509005412 49 314 0.0 0.0 0.00 0.00 0.00 53 1008.4
20260509004911 49 314 0.0 0.0 0.00 0.00 0.00 51 1008.3
20260509004408 49 314 0.0 0.0 0.00 0.00 0.00 51 1008.3
20260509003906 50 314 0.0 0.0 0.00 0.00 0.00 49 1008.4
20260509003403 50 314 0.0 0.0 0.00 0.00 0.00 48 1008.1
20260509002900 50 314 0.0 0.0 0.00 0.00 0.00 48 1008.1
20260509002358 50 314 0.0 0.0 0.00 0.00 0.00 47 1008.1
20260509001855 50 314 0.0 0.0 0.00 0.00 0.00 46 1007.7
20260509001351 50 314 0.0 0.0 0.00 0.00 0.00 47 1007.9
20260509000849 50 314 0.0 0.0 0.00 0.00 0.00 47 1007.8
20260509000348 51 314 0.0 0.0 0.00 0.00 0.00 46 1007.7
20260508235842 51 314 0.0 0.0 0.00 0.00 0.00 46 1007.8
20260508235339 51 314 0.0 0.0 0.00 0.00 0.00 45 1007.5
20260508234836 51 314 0.0 0.0 0.00 0.00 0.00 45 1007.4
20260508234333 52 314 0.0 0.0 0.00 0.00 0.00 45 1007.5
20260508233831 52 314 0.0 1.0 0.00 0.00 0.00 45 1007.4
20260508233331 53 314 0.0 0.0 0.00 0.00 0.00 45 1007.5
20260508232827 53 314 0.0 0.0 0.00 0.00 0.00 45 1007.4
20260508232323 53 314 0.0 0.0 0.00 0.00 0.00 45 1007.2
20260508231822 53 314 0.0 1.0 0.00 0.00 0.00 44 1007.3
20260508231317 53 314 1.0 1.0 0.00 0.00 0.00 44 1007.2
20260508230815 54 314 0.0 0.0 0.00 0.00 0.00 44 1007.1
20260508230311 54 314 0.0 0.0 0.00 0.00 0.00 44 1007.2
20260508225809 54 313 0.0 0.0 0.00 0.00 0.00 43 1006.9
20260508225306 54 313 0.0 0.0 0.00 0.00 0.00 42 1006.9
20260508224803 55 312 0.0 0.0 0.00 0.00 0.00 41 1006.9
20260508224300 55 308 1.0 1.0 0.00 0.00 0.00 41 1006.8
20260508223758 55 312 0.0 0.0 0.00 0.00 0.00 42 1006.6
20260508223255 55 312 2.0 2.0 0.00 0.00 0.00 42 1006.7
20260508222752 55 317 1.0 1.0 0.00 0.00 0.00 42 1006.8
20260508222249 55 313 1.0 1.0 0.00 0.00 0.00 43 1006.9
20260508221746 54 313 2.0 2.0 0.00 0.00 0.00 43 1006.8
20260508221242 54 313 1.0 2.0 0.00 0.00 0.00 43 1006.7
20260508220738 55 314 0.0 1.0 0.00 0.00 0.00 42 1006.7
20260508220235 56 316 0.0 1.0 0.00 0.00 0.00 42 1006.6
20260508215731 56 316 1.0 1.0 0.00 0.00 0.00 42 1006.5
20260508215228 56 310 3.0 3.0 0.00 0.00 0.00 43 1006.2
20260508214725 55 319 0.0 0.0 0.00 0.00 0.00 44 1006.5
20260508214222 55 319 0.0 0.0 0.00 0.00 0.00 44 1006.5